RH
20 18 20 22 21 19 15 12 12 13 13 12 10 10 10 9 11 13 19 23 23 19 16 12 12 14 40 52 55 62 63 68 62 54 49 48 40 65 78 73 65 61 77
12 12 10 10 12 14 13 12 12 13 12 11 10 9 10 9 7 8 10 14 14 13 14 12 12 12 12 28 41 52 60 63 68 69 78 83 75 80 87 80 69 63 69
9 8 7 7 9 10 11 12 12 12 11 11 10 9 9 8 8 8 9 13 17 14 12 12 11 11 12 12 15 27 48 47 57 74 80 96 95 93 84 75 78 69 59
13 12 11 9 8 8 9 10 10 10 10 10 10 10 9 8 7 7 10 15 15 14 14 14 20 26 30 32 27 31 45 55 58 74 67 95 93 87 87 87 90 78 64
13 12 12 11 11 11 11 10 10 10 10 10 9 8 6 6 6 6 7 8 13 15 16 23 32 36 27 19 44 57 55 68 84 83 89 88 79 70 75 88 100 92 82
14 13 11 10 10 10 10 10 10 9 8 8 7 7 7 8 8 8 9 9 9 12 15 20 23 25 26 26 31 36 46 59 95 93 82 89 93 95 95 96 94 99 89
12 12 12 12 11 11 10 9 9 9 9 9 10 11 11 12 12 11 10 10 10 10 11 13 15 17 21 27 34 35 40 49 76 98 100 98 97 96 96 94 95 90 86
12 11 11 10 10 10 10 9 10 10 11 12 14 15 12 9 8 8 9 10 12 14 16 17 18 16 17 17 18 23 36 43 48 43 51 67 82 98 97 95 98 98 98
14 13 12 12 12 11 11 11 12 13 14 16 15 10 8 9 10 11 12 13 17 22 25 26 29 35 46 52 43 28 28 35 49 64 59 50 61 69 88 98 93 94 94
14 13 12 12 11 11 13 14 15 17 14 9 9 9 10 10 13 16 19 21 14 11 12 12 13 15 17 23 45 66 60 56 50 47 54 58 53 60 77 80 84 72 91
15 14 13 13 14 15 15 14 11 9 11 11 11 10 11 13 12 13 11 8 10 14 15 16 15 22 28 31 26 26 66 72 74 62 58 39 34 42 99 100 52 96 59
17 16 16 16 16 13 11 10 13 14 12 11 10 14 10 8 8 6 8 15 16 21 18 13 20 41 47 35 54 55 67 86 79 80 51 32 34 45 51 46 38 32 37
17 16 15 14 11 10 11 16 17 14 11 15 14 10 10 11 13 14 17 16 18 19 17 17 37 63 59 44 80 100 100 100 98 92 85 57 34 38 45 37 41 36 32
14 13 13 12 12 17 20 18 15 14 17 11 11 10 8 9 8 9 11 18 20 17 27 42 36 40 50 52 99 93 57 100 100 96 91 73 56 48 42 33 28 24 40
15 14 19 24 26 24 21 17 17 18 12 10 14 13 13 11 10 13 18 25 22 26 43 55 47 54 87 92 64 69 63 70 100 100 89 80 68 53 40 31 70 100 96
39 35 35 34 29 25 23 24 24 19 14 12 14 15 15 15 17 23 24 27 36 40 44 55 58 63 83 99 96 88 87 93 100 100 93 71 52 48 54 86 100 99 99
42 39 38 37 34 31 31 35 28 21 21 20 20 20 21 21 23 22 27 32 41 52 50 59 72 66 87 98 99 100 100 100 100 86 88 100 99 100 100 92 92 100 99
46 45 43 43 42 38 35 33 32 29 30 26 29 28 28 24 26 29 33 38 40 49 57 67 69 77 90 95 99 100 100 100 99 100 100 91 91 96 98 100 97 93 59
54 51 44 44 45 42 39 32 35 40 35 34 35 35 36 33 35 41 45 48 47 53 57 62 74 76 80 88 82 93 99 100 100 99 99 92 100 96 92 66 37 25 23
51 49 46 48 48 47 45 44 45 45 48 42 44 42 40 43 42 36 34 34 36 36 37 46 70 81 88 98 100 100 100 100 100 97 86 65 43 32 28 27 26 24 21
46 42 41 50 55 51 49 55 53 58 55 49 50 52 36 32 31 34 36 35 36 38 40 42 47 52 53 55 60 58 57 55 49 41 34 31 30 30 30 29 27 24 20
43 49 51 57 68 62 54 55 57 65 57 52 61 46 32 36 39 38 37 40 42 45 46 46 48 53 56 57 54 48 43 38 34 31 30 31 33 34 34 34 32 30 28
59 58 53 56 66 76 73 72 68 70 60 51 38 33 39 44 41 41 43 47 52 53 52 51 52 53 53 50 47 43 39 38 38 39 40 40 40 40 40 39 37 35 31
59 65 62 59 64 70 75 75 72 58 45 37 35 45 51 47 45 45 49 55 58 56 54 53 55 54 53 51 48 47 45 45 46 48 49 51 52 52 50 46 41 34 24
66 71 67 68 72 77 76 75 67 52 39 43 53 58 58 55 52 56 60 62 61 58 54 52 51 52 54 55 53 54 55 56 58 59 61 62 60 55 51 45 38 28 13
81 74 81 78 76 80 81 78 60 49 57 65 68 66 67 64 66 69 67 65 62 57 54 52 53 55 56 58 57 57 60 62 61 60 60 59 54 50 48 42 35 17 8
Wind_Speed
45 44 43 43 42 41 41 41 40 39 39 41 44 39 43 45 45 45 45 45 44 44 45 45 46 47 46 46 46 46 47 46 46 44 42 41 40 38 35 35 35 34 33
44 45 43 42 41 40 42 42 41 41 40 42 43 43 43 45 46 47 47 47 47 48 47 47 47 49 49 50 50 50 50 49 49 49 49 45 43 41 39 39 39 38 36
37 37 38 38 39 39 39 40 40 41 41 43 43 45 41 44 45 46 48 49 52 52 51 50 51 52 53 53 53 52 52 53 53 52 52 49 46 44 43 44 44 42 41
34 35 35 36 36 36 37 38 39 40 41 43 44 45 46 44 46 47 49 51 53 54 55 53 53 54 53 54 55 55 55 55 54 54 53 52 51 48 47 46 46 45 45
35 35 36 36 36 36 36 37 39 40 41 42 43 45 45 46 46 48 50 51 52 54 55 57 56 55 57 56 56 56 57 56 57 54 54 54 53 53 52 49 48 49 47
37 36 36 37 38 38 39 40 40 40 40 41 42 43 44 45 45 47 48 50 53 54 54 54 56 59 60 60 60 60 60 59 59 58 59 59 58 56 54 52 51 51 52
36 37 37 37 38 39 39 40 40 40 40 40 40 40 41 44 46 47 49 51 52 54 55 57 58 59 61 63 65 64 63 61 62 62 61 61 61 60 58 54 56 55 59
36 36 36 36 36 37 38 38 38 38 37 38 39 41 42 43 45 48 50 52 54 56 58 60 62 64 66 67 67 66 66 65 65 67 67 64 62 60 56 52 48 60 66
35 36 36 36 37 37 36 36 36 36 37 38 40 41 42 43 45 47 49 52 54 56 58 61 62 65 67 68 68 69 68 66 64 64 64 62 61 59 56 50 59 62 57
33 35 36 36 36 35 35 34 34 35 36 37 37 37 40 42 44 47 50 51 51 52 56 60 64 66 68 69 68 66 65 63 63 63 60 58 56 53 52 51 60 60 47
34 34 34 34 33 31 31 32 33 32 31 32 34 37 40 41 45 48 46 45 50 55 55 57 60 62 67 69 68 64 63 61 59 58 56 58 57 57 56 54 57 51 57
29 29 29 29 29 31 31 29 28 27 28 33 36 34 35 37 42 41 48 50 53 53 49 56 61 62 57 60 58 56 55 54 54 54 54 55 56 57 56 57 57 62 63
27 27 28 29 30 28 27 27 28 30 32 32 29 26 28 31 35 39 42 43 49 49 50 55 57 58 48 46 49 48 45 42 42 45 49 50 51 54 55 54 55 54 54
28 28 28 26 25 24 24 27 29 28 27 25 20 20 18 19 23 27 34 39 41 41 46 41 40 41 40 37 37 41 38 38 35 36 40 42 45 48 47 46 47 49 49
25 24 22 22 22 24 25 26 27 23 20 17 16 17 16 16 19 19 25 31 34 37 42 30 35 31 33 31 25 28 27 26 31 32 34 36 37 39 40 43 44 46 48
22 22 23 23 23 24 25 24 25 23 20 19 18 19 18 18 20 20 22 25 29 30 33 29 29 25 24 20 25 22 22 25 26 19 20 26 31 35 38 41 46 49 49
19 20 21 20 19 20 20 22 22 22 18 20 22 22 19 20 20 19 20 21 26 24 22 24 25 21 16 13 12 12 21 17 20 20 20 24 27 33 35 37 40 43 44
19 18 19 23 25 24 23 23 24 22 20 20 22 18 18 17 18 18 15 18 21 24 23 19 17 15 16 11 12 8 12 19 19 21 23 28 32 34 37 43 35 33 34
18 19 20 20 21 24 23 21 24 22 20 20 18 17 16 17 18 18 20 19 19 21 20 18 15 13 10 10 9 12 12 15 18 19 22 28 30 27 27 28 31 35 39
21 23 24 23 20 23 22 20 18 20 22 19 16 16 18 17 17 16 17 20 21 22 21 19 18 15 15 16 17 14 13 14 16 19 20 21 23 25 28 32 36 40 42
14 15 17 19 21 21 22 23 23 23 20 20 19 19 14 13 16 19 19 21 22 22 21 19 17 16 15 14 14 15 15 16 17 19 21 24 27 30 34 38 41 43 46
13 14 14 16 18 18 17 19 20 18 16 18 18 16 15 16 17 19 20 19 20 20 21 20 19 18 16 16 17 17 18 20 22 24 26 29 33 36 39 41 44 47 50
15 14 14 14 16 18 17 19 19 17 15 15 15 15 16 17 18 19 19 19 19 21 20 18 17 17 17 18 19 20 22 24 26 29 31 34 37 40 42 45 47 50 51
16 16 16 15 15 15 15 16 16 16 15 15 15 14 16 17 18 19 20 20 20 21 20 20 19 19 19 20 22 23 25 27 30 33 36 39 42 44 46 48 49 51 52
17 15 16 16 15 15 15 15 16 16 16 14 14 15 16 18 19 20 20 20 22 21 20 20 21 21 23 24 26 28 30 33 36 38 40 42 44 45 46 49 51 52 55
18 16 17 18 18 18 18 17 16 15 15 16 16 16 18 20 21 20 21 22 23 22 22 22 24 25 26 27 29 32 34 37 39 41 43 44 44 46 49 50 54 56 59
Wind_Direction
243 246 246 247 249 249 249 251 254 257 260 262 266 266 271 273 274 276 275 275 278 279 279 279 280 279 279 276 274 273 273 274 273 273 275 272 273 275 275 277 278 281 277
244 246 247 247 246 245 246 249 252 256 259 263 266 268 272 277 278 277 279 277 274 274 274 276 276 276 275 274 274 273 273 272 273 273 272 273 272 274 274 273 277 278 279
242 245 248 248 247 245 246 248 252 256 260 263 266 270 269 273 275 274 274 274 275 277 277 277 277 275 275 274 273 272 271 271 270 270 271 273 273 272 274 274 274 274 277
249 250 252 253 253 253 252 253 256 260 264 268 270 272 273 271 270 268 267 270 274 277 277 276 274 273 273 273 271 270 269 270 270 270 272 270 270 272 272 273 272 272 273
253 255 257 259 260 261 262 263 264 265 267 268 269 271 272 272 270 270 271 270 269 270 272 275 273 270 272 271 270 270 269 269 267 266 267 267 270 274 272 270 271 271 271
250 252 254 256 259 261 264 266 268 269 269 270 271 271 272 274 275 275 274 273 272 272 271 270 270 271 271 271 270 269 269 267 267 266 264 265 267 270 269 270 271 271 273
249 251 254 256 258 260 263 265 266 268 270 269 270 272 273 275 275 275 275 275 275 275 275 274 273 271 269 269 269 268 266 266 265 266 265 265 268 271 272 272 269 272 275
249 252 254 256 258 260 261 263 265 266 268 271 274 276 277 277 278 280 281 281 279 279 277 275 274 273 271 269 267 266 266 265 264 264 265 267 270 273 273 273 272 279 273
250 251 253 254 256 257 259 261 264 268 272 273 275 276 278 281 283 283 283 283 283 282 281 280 278 275 271 268 267 265 264 263 263 263 265 268 270 271 271 273 269 271 285
247 249 250 252 254 256 260 265 269 271 273 276 279 281 284 284 286 287 288 287 289 291 290 289 285 280 275 271 267 264 262 260 260 261 262 264 265 268 269 268 274 282 275
241 243 246 250 255 259 263 266 270 274 277 281 283 286 288 291 291 289 290 291 294 300 298 291 290 289 279 272 267 264 261 258 256 256 257 260 263 266 260 269 269 276 280
242 246 251 253 256 259 263 269 268 271 279 282 285 290 294 294 294 291 293 297 299 302 294 289 298 296 290 273 269 263 261 254 253 254 253 255 257 261 264 267 268 273 273
245 248 251 256 260 264 260 260 265 274 281 282 287 293 298 299 296 296 302 305 308 307 297 295 300 298 289 276 269 254 261 260 257 253 251 252 254 259 262 267 269 272 273
251 254 258 260 260 257 260 268 271 275 280 282 278 294 306 309 314 316 308 305 306 302 309 301 306 304 298 287 270 250 251 255 252 250 252 252 254 257 262 264 267 272 269
256 259 258 255 256 261 265 269 272 274 271 262 278 293 311 307 310 316 322 318 318 307 312 311 302 300 300 294 277 258 256 253 248 245 248 252 255 257 262 264 267 273 275
254 256 251 250 255 261 268 273 272 263 270 267 273 289 291 311 309 310 311 324 316 315 319 313 320 325 285 298 286 265 237 234 238 235 244 249 253 258 264 266 272 274 276
244 248 250 251 257 262 270 264 270 266 273 279 278 287 292 305 301 308 322 323 329 325 327 327 324 327 313 283 268 283 257 227 233 238 248 258 263 269 267 275 276 274 277
253 258 262 261 257 265 271 262 263 272 278 283 283 281 284 302 306 302 317 327 330 339 327 328 334 312 335 314 308 307 291 261 265 257 256 278 280 281 273 274 280 295 296
262 264 264 264 264 257 267 268 263 266 276 284 280 277 290 298 300 309 318 324 330 333 337 344 332 332 333 327 316 312 291 289 284 280 270 273 278 289 298 297 296 297 297
263 264 264 265 269 261 264 267 257 267 282 284 274 286 294 294 306 314 322 324 327 329 332 333 336 333 323 311 303 297 299 299 291 292 300 304 299 295 298 301 301 300 300
265 275 274 268 261 262 264 262 266 277 275 270 274 289 287 295 305 309 315 318 321 324 327 328 326 321 319 321 323 321 314 309 305 303 303 304 305 305 304 303 301 299 298
269 273 275 271 267 263 263 260 262 262 269 273 274 275 285 296 305 312 315 318 320 322 322 321 321 321 319 317 316 315 314 311 309 307 306 304 303 302 303 304 304 303 301
268 274 275 276 274 269 263 260 260 262 263 267 267 273 286 300 309 312 314 314 317 322 322 322 317 315 314 313 312 313 311 307 306 304 302 301 302 304 305 305 304 305 305
268 268 272 275 278 276 271 268 264 261 261 265 267 279 293 301 309 312 310 311 316 320 321 321 316 312 310 308 307 307 306 305 305 306 306 306 306 306 306 307 307 306 307
266 273 268 268 272 274 271 267 265 267 266 263 273 284 295 301 306 308 314 316 316 313 314 316 314 312 312 309 307 307 307 308 309 308 307 307 308 309 309 308 308 310 312
264 264 265 265 269 272 270 268 266 264 266 272 277 288 296 299 302 310 315 313 311 310 313 314 314 311 308 308 310 311 311 310 309 309 309 309 311 311 311 310 312 313 314